timestamp,wind_dir_avg,wind_spd_avg,wind_spd_max_dir,wind_spd_gust,battery_voltage,lat,long
2024-02-14 00:04:00+00:00,164.0,4.39,164.0,4.67,12.25,47.59359,-54.27349
2024-02-14 00:14:00+00:00,169.0,3.78,174.0,4.16,12.25,47.59359,-54.27349
2024-02-14 00:24:00+00:00,170.0,3.48,175.0,3.75,12.25,47.59359,-54.27349
2024-02-14 00:34:00+00:00,170.0,3.36,169.0,3.75,12.25,47.59359,-54.27349
2024-02-14 00:44:00+00:00,161.0,3.4,159.0,3.73,12.25,47.59359,-54.27349
2024-02-14 00:54:00+00:00,157.0,2.6,152.0,2.9,12.25,47.59359,-54.27349
2024-02-14 01:04:00+00:00,166.0,3.38,164.0,3.62,12.25,47.59359,-54.27349
2024-02-14 01:14:00+00:00,160.0,3.19,160.0,3.5,12.17,47.59359,-54.27349
2024-02-14 01:24:00+00:00,157.0,3.51,155.0,3.95,12.17,47.59359,-54.27349
2024-02-14 01:34:00+00:00,145.0,3.49,146.0,3.77,12.17,47.59359,-54.27349
2024-02-14 01:44:00+00:00,142.0,3.02,141.0,3.4,12.17,47.59359,-54.27349
2024-02-14 01:54:00+00:00,132.0,2.76,135.0,3.16,12.17,47.59359,-54.27349
2024-02-14 02:04:00+00:00,125.0,2.39,126.0,2.75,12.17,47.59359,-54.27349
2024-02-14 02:14:00+00:00,148.0,3.23,143.0,3.69,12.17,47.59359,-54.27349
2024-02-14 02:24:00+00:00,135.0,3.1,139.0,3.2,12.17,47.59359,-54.27349
2024-02-14 02:34:00+00:00,315.0,0.01,108.0,0.0,12.17,47.59359,-54.27349
2024-02-14 02:44:00+00:00,315.0,0.01,61.0,0.0,12.17,47.59359,-54.27349
2024-02-14 02:54:00+00:00,94.0,2.04,133.0,2.8,12.17,47.59359,-54.27349
2024-02-14 03:04:00+00:00,85.0,1.73,84.0,2.16,12.17,47.59359,-54.27349
2024-02-14 03:14:00+00:00,315.0,0.01,93.0,0.0,12.09,47.59359,-54.27349
2024-02-14 03:24:00+00:00,89.0,2.1,61.0,2.41,12.09,47.59359,-54.27349
2024-02-14 03:34:00+00:00,96.0,6.06,96.0,6.47,12.09,47.59359,-54.27349
2024-02-14 03:44:00+00:00,78.0,2.16,80.0,2.21,12.09,47.59359,-54.27349
2024-02-14 03:54:00+00:00,315.0,0.01,79.0,0.0,12.09,47.59359,-54.27349
2024-02-14 04:04:00+00:00,315.0,0.01,84.0,0.0,12.09,47.59359,-54.27349
2024-02-14 04:14:00+00:00,315.0,0.01,84.0,0.0,12.09,47.59359,-54.27349
2024-02-14 04:24:00+00:00,315.0,0.01,63.0,0.0,12.09,47.59359,-54.27349
2024-02-14 04:34:00+00:00,69.0,6.07,68.0,6.22,12.09,47.59359,-54.27349
2024-02-14 04:44:00+00:00,67.0,7.32,69.0,8.8,12.09,47.59359,-54.27349
2024-02-14 04:54:00+00:00,68.0,6.72,74.0,8.05,12.09,47.59359,-54.27349
2024-02-14 05:04:00+00:00,64.0,6.62,61.0,7.34,12.09,47.59359,-54.27349
2024-02-14 05:14:01+00:00,72.0,6.76,75.0,8.26,12.09,47.59359,-54.27349
2024-02-14 05:24:01+00:00,69.0,6.45,64.0,7.56,12.09,47.59359,-54.27349
2024-02-14 05:34:01+00:00,68.0,7.8,73.0,9.14,12.09,47.59359,-54.27349
2024-02-14 05:44:01+00:00,70.0,7.39,67.0,8.74,12.09,47.59359,-54.27349
2024-02-14 05:54:01+00:00,69.0,8.4,67.0,9.75,12.09,47.59359,-54.27349
2024-02-14 06:04:01+00:00,68.0,8.23,70.0,9.41,12.09,47.59359,-54.27349
2024-02-14 06:14:00+00:00,63.0,8.55,65.0,9.77,12.09,47.59359,-54.27349
2024-02-14 06:24:00+00:00,66.0,9.2,63.0,10.25,12.09,47.59359,-54.27349
2024-02-14 06:34:00+00:00,67.0,8.68,71.0,10.2,12.09,47.59359,-54.27349
2024-02-14 06:44:00+00:00,68.0,8.54,63.0,9.73,12.09,47.59359,-54.27349
2024-02-14 06:54:00+00:00,71.0,7.4,70.0,9.6,12.09,47.59359,-54.27349
2024-02-14 07:04:00+00:00,78.0,6.85,72.0,8.97,12.09,47.59359,-54.27349
2024-02-14 07:14:00+00:00,78.0,7.15,76.0,10.15,12.01,47.59359,-54.27349
2024-02-14 07:24:00+00:00,76.0,8.5,70.0,10.68,12.01,47.59359,-54.27349
2024-02-14 07:34:00+00:00,75.0,8.78,66.0,11.01,12.01,47.59359,-54.27349
2024-02-14 07:44:00+00:00,69.0,9.69,76.0,13.47,12.01,47.59359,-54.27349
2024-02-14 07:54:00+00:00,75.0,9.07,63.0,10.6,12.01,47.59359,-54.27349
2024-02-14 08:04:00+00:00,73.0,9.72,74.0,11.07,12.01,47.59359,-54.27349
2024-02-14 08:14:00+00:00,72.0,9.14,58.0,10.9,12.01,47.59359,-54.27349
2024-02-14 08:24:00+00:00,71.0,8.62,64.0,10.94,12.01,47.59359,-54.27349
2024-02-14 08:34:00+00:00,78.0,8.88,75.0,13.75,12.01,47.59359,-54.27349
2024-02-14 08:44:00+00:00,71.0,9.84,67.0,11.61,12.01,47.59359,-54.27349
2024-02-14 08:54:00+00:00,69.0,10.34,68.0,14.25,12.01,47.59359,-54.27349
2024-02-14 09:04:00+00:00,72.0,10.6,69.0,14.38,12.01,47.59359,-54.27349
2024-02-14 12:14:00+00:00,51.0,16.02,46.0,18.42,11.93,47.59359,-54.27349
2024-02-14 12:24:00+00:00,47.0,16.1,52.0,18.71,11.93,47.59359,-54.27349
2024-02-14 12:34:00+00:00,50.0,18.3,57.0,24.01,11.93,47.59359,-54.27349
2024-02-14 12:44:00+00:00,48.0,18.65,53.0,24.71,11.93,47.59359,-54.27349
2024-02-14 12:54:00+00:00,45.0,18.82,57.0,24.43,11.93,47.59359,-54.27349
2024-02-14 13:04:00+00:00,40.0,17.66,43.0,20.82,11.93,47.59359,-54.27349
2024-02-14 13:14:01+00:00,39.0,18.89,54.0,25.18,12.01,47.59359,-54.27349
2024-02-14 13:24:01+00:00,38.0,17.72,31.0,20.76,12.01,47.59359,-54.27349
2024-02-14 13:34:01+00:00,42.0,17.61,50.0,19.7,12.01,47.59359,-54.27349
2024-02-14 13:44:01+00:00,38.0,20.59,49.0,25.8,12.01,47.59359,-54.27349
2024-02-14 13:54:01+00:00,39.0,19.26,48.0,25.75,12.01,47.59359,-54.27349
2024-02-14 14:04:01+00:00,39.0,19.54,51.0,27.4,12.01,47.59359,-54.27349
2024-02-14 14:14:00+00:00,37.0,20.37,51.0,27.18,12.09,47.59359,-54.27349
2024-02-14 14:24:00+00:00,42.0,19.08,51.0,25.53,12.09,47.59359,-54.27349
2024-02-14 14:34:00+00:00,42.0,21.64,48.0,27.33,12.09,47.59359,-54.27349
2024-02-14 14:44:00+00:00,43.0,20.27,49.0,27.41,12.09,47.59359,-54.27349
2024-02-14 14:54:00+00:00,41.0,19.93,47.0,25.63,12.09,47.59359,-54.27349
2024-02-14 15:04:00+00:00,37.0,18.39,30.0,20.95,12.09,47.59359,-54.27349
2024-02-14 15:14:00+00:00,39.0,21.19,47.0,28.78,12.01,47.59359,-54.27349
2024-02-14 15:24:00+00:00,41.0,16.87,47.0,25.65,12.01,47.59359,-54.27349
2024-02-14 15:34:00+00:00,39.0,19.48,52.0,25.62,12.01,47.59359,-54.27349
2024-02-14 15:44:00+00:00,40.0,20.7,51.0,26.71,12.01,47.59359,-54.27349
2024-02-14 15:54:00+00:00,37.0,18.02,44.0,23.19,12.01,47.59359,-54.27349
2024-02-14 16:04:00+00:00,36.0,16.99,31.0,21.25,12.01,47.59359,-54.27349
2024-02-14 16:14:01+00:00,34.0,19.17,29.0,22.75,12.41,47.59359,-54.27349
2024-02-14 16:24:01+00:00,36.0,18.34,38.0,21.74,12.41,47.59359,-54.27349
2024-02-14 16:34:01+00:00,33.0,19.92,42.0,22.66,12.41,47.59359,-54.27349
2024-02-14 16:44:01+00:00,35.0,18.11,37.0,22.36,12.41,47.59359,-54.27349
2024-02-14 16:54:01+00:00,35.0,19.17,38.0,23.97,12.41,47.59359,-54.27349
2024-02-14 17:04:01+00:00,32.0,21.29,47.0,25.71,12.41,47.59359,-54.27349
2024-02-14 17:14:00+00:00,33.0,21.45,44.0,26.14,12.81,47.59359,-54.27349
2024-02-14 17:24:00+00:00,33.0,18.55,40.0,28.16,12.81,47.59359,-54.27349
2024-02-14 17:34:00+00:00,31.0,21.94,32.0,24.81,12.81,47.59359,-54.27349
2024-02-14 17:44:00+00:00,30.0,22.32,32.0,24.44,12.81,47.59359,-54.27349
2024-02-14 17:54:00+00:00,31.0,22.0,38.0,28.86,12.81,47.59359,-54.27349
2024-02-14 18:04:00+00:00,31.0,21.61,44.0,26.22,12.81,47.59359,-54.27349
2024-02-14 18:14:00+00:00,30.0,21.22,41.0,29.49,12.81,47.59359,-54.27349
2024-02-14 18:24:00+00:00,29.0,21.18,32.0,24.16,12.81,47.59359,-54.27349
2024-02-14 18:34:00+00:00,31.0,21.71,28.0,25.75,12.81,47.59359,-54.27349
2024-02-14 18:44:00+00:00,29.0,20.75,31.0,25.15,12.81,47.59359,-54.27349
2024-02-14 18:54:00+00:00,28.0,20.69,31.0,24.58,12.81,47.59359,-54.27349
2024-02-14 19:04:00+00:00,29.0,19.21,32.0,23.92,12.81,47.59359,-54.27349
2024-02-14 19:14:00+00:00,27.0,20.09,31.0,26.59,12.73,47.59359,-54.27349
2024-02-14 19:24:00+00:00,28.0,21.51,30.0,24.58,12.73,47.59359,-54.27349
2024-02-14 19:34:00+00:00,27.0,21.2,31.0,25.58,12.73,47.59359,-54.27349
2024-02-14 19:44:00+00:00,27.0,21.48,34.0,25.48,12.73,47.59359,-54.27349
2024-02-14 19:54:00+00:00,27.0,21.0,31.0,25.06,12.73,47.59359,-54.27349
2024-02-14 20:04:00+00:00,28.0,19.0,31.0,23.51,12.73,47.59359,-54.27349
2024-02-14 20:14:00+00:00,27.0,20.24,41.0,26.2,12.57,47.59359,-54.27349
2024-02-14 20:24:00+00:00,30.0,20.0,38.0,24.42,12.57,47.59359,-54.27349
2024-02-14 20:34:00+00:00,30.0,21.04,38.0,26.74,12.57,47.59359,-54.27349
2024-02-14 20:44:00+00:00,29.0,19.49,31.0,24.46,12.57,47.59359,-54.27349
2024-02-14 20:54:00+00:00,27.0,18.6,33.0,24.25,12.57,47.59359,-54.27349
2024-02-14 21:04:00+00:00,25.0,18.96,38.0,24.72,12.57,47.59359,-54.27349
2024-02-14 21:14:00+00:00,26.0,20.1,34.0,25.16,12.25,47.59359,-54.27349
2024-02-14 21:24:00+00:00,28.0,23.38,31.0,28.6,12.25,47.59359,-54.27349
2024-02-14 21:34:00+00:00,26.0,20.6,30.0,24.49,12.25,47.59359,-54.27349
2024-02-14 21:44:00+00:00,24.0,20.24,34.0,24.8,12.25,47.59359,-54.27349
2024-02-14 21:54:00+00:00,23.0,19.72,31.0,24.24,12.25,47.59359,-54.27349
2024-02-14 22:04:00+00:00,26.0,18.78,35.0,23.87,12.25,47.59359,-54.27349
2024-02-14 22:14:00+00:00,23.0,20.72,24.0,24.65,12.09,47.59359,-54.27349
2024-02-14 22:24:00+00:00,22.0,20.06,18.0,24.7,12.09,47.59359,-54.27349
2024-02-14 22:34:00+00:00,23.0,18.98,22.0,23.95,12.09,47.59359,-54.27349
2024-02-14 22:44:00+00:00,23.0,18.87,28.0,22.48,12.09,47.59359,-54.27349
2024-02-14 22:54:00+00:00,23.0,18.54,20.0,21.93,12.09,47.59359,-54.27349
2024-02-14 23:04:00+00:00,20.0,20.48,19.0,23.52,12.09,47.59359,-54.27349
2024-02-14 23:14:00+00:00,22.0,22.51,19.0,26.57,11.93,47.59359,-54.27349
2024-02-14 23:24:00+00:00,21.0,20.67,19.0,26.15,11.93,47.59359,-54.27349
2024-02-14 23:34:00+00:00,22.0,19.38,17.0,24.09,11.93,47.59359,-54.27349
2024-02-14 23:44:00+00:00,23.0,18.1,21.0,21.23,11.93,47.59359,-54.27349
2024-02-14 23:54:00+00:00,21.0,20.72,34.0,24.28,11.93,47.59359,-54.27349
